Location: Navalespino
(40.5894°N, 4.2660°W)
Time: 02:30:06
(UTC+00:00)

NOSS 3-1 (C) - Pass Details

Date: 18 April 2024
Orbit: 652 x 1553 km, 63.4° (Epoch: 15 May)

Event Time Altitude Azimuth Distance (km) Brightness Sun altitude
Rises 20:02:13 0° 235° (SW) 3,013 6.5 -11.9°
Reaches altitude 10° 20:04:30 10° 242° (WSW) 2,154 5.8 -12.3°
Maximum altitude 20:09:06 41° 314° (NW) 1,100 4.4 -13.0°
Drops below altitude 10° 20:14:32 10° 24° (NNE) 2,554 5.8 -13.9°
Sets 20:17:28 0° 31° (NNE) 3,645 6.5 -14.4°
